Time,TemperatureF,DewpointF,PressureIn,WindDirection,WindDirectionDegrees,WindSpeedMPH,WindSpeedGustMPH,Humidity,HourlyPrecipIn,Conditions,Clouds,dailyrainin,SoftwareType,DateUTC
2013-05-27 00:01:00,81.6,77.0,29.92,ENE,71,5.0,11.0,85,0.00,,,0.00,weatherlink.com 1.10,2013-05-27 04:01:00,
2013-05-27 00:16:00,81.6,77.0,29.92,ENE,57,8.0,15.0,85,0.00,,,0.00,weatherlink.com 1.10,2013-05-27 04:16:00,
2013-05-27 00:31:00,81.8,76.0,29.92,ENE,65,3.0,15.0,83,0.00,,,0.00,weatherlink.com 1.10,2013-05-27 04:31:00,
2013-05-27 00:46:00,82.0,76.0,29.91,East,82,9.0,14.0,83,0.00,,,0.00,weatherlink.com 1.10,2013-05-27 04:46:00,
2013-05-27 01:01:00,82.0,76.0,29.91,NE,49,5.0,14.0,83,0.00,,,0.00,weatherlink.com 1.10,2013-05-27 05:01:00,
2013-05-27 01:16:00,82.1,77.0,29.91,ENE,78,10.0,15.0,83,0.00,,,0.00,weatherlink.com 1.10,2013-05-27 05:16:00,
2013-05-27 01:31:00,82.0,77.0,29.90,East,84,11.0,11.0,84,0.00,,,0.00,weatherlink.com 1.10,2013-05-27 05:31:00,
2013-05-27 01:46:00,81.8,77.0,29.89,ESE,106,3.0,14.0,84,0.00,,,0.00,weatherlink.com 1.10,2013-05-27 05:46:00,
2013-05-27 02:01:00,81.8,77.0,29.88,East,91,3.0,15.0,84,0.00,,,0.00,weatherlink.com 1.10,2013-05-27 06:01:00,
2013-05-27 02:16:00,81.7,77.0,29.89,ESE,105,14.0,17.0,84,0.00,,,0.00,weatherlink.com 1.10,2013-05-27 06:16:00,
2013-05-27 02:32:00,81.8,77.0,29.88,ENE,69,5.0,11.0,85,0.00,,,0.00,weatherlink.com 1.10,2013-05-27 06:32:00,
2013-05-27 02:55:00,81.8,77.0,29.87,East,81,6.0,16.0,84,0.00,,,0.00,weatherlink.com 1.10,2013-05-27 06:55:00,
2013-05-27 03:02:00,81.7,77.0,29.87,East,98,10.0,17.0,84,0.00,,,0.00,weatherlink.com 1.10,2013-05-27 07:02:00,
2013-05-27 03:17:00,81.8,77.0,29.87,ESE,107,10.0,14.0,84,0.00,,,0.00,weatherlink.com 1.10,2013-05-27 07:17:00,
2013-05-27 03:32:00,81.7,77.0,29.86,East,83,5.0,15.0,84,0.00,,,0.00,weatherlink.com 1.10,2013-05-27 07:32:00,
2013-05-27 03:47:00,81.6,76.0,29.86,NE,50,6.0,14.0,84,0.00,,,0.00,weatherlink.com 1.10,2013-05-27 07:47:00,
2013-05-27 04:02:00,81.5,76.0,29.86,ESE,106,8.0,13.0,84,0.00,,,0.00,weatherlink.com 1.10,2013-05-27 08:02:00,
2013-05-27 04:17:00,81.7,77.0,29.86,North,10,8.0,16.0,85,0.00,,,0.00,weatherlink.com 1.10,2013-05-27 08:17:00,
2013-05-27 04:32:00,81.7,77.0,29.86,East,79,11.0,16.0,85,0.00,,,0.00,weatherlink.com 1.10,2013-05-27 08:32:00,
2013-05-27 04:47:00,81.7,77.0,29.86,ENE,76,4.0,14.0,86,0.00,,,0.00,weatherlink.com 1.10,2013-05-27 08:47:00,
2013-05-27 05:02:00,81.6,77.0,29.86,East,99,8.0,13.0,85,0.00,,,0.00,weatherlink.com 1.10,2013-05-27 09:02:00,
2013-05-27 05:17:00,81.5,77.0,29.86,ENE,75,8.0,15.0,86,0.00,,,0.00,weatherlink.com 1.10,2013-05-27 09:17:00,
2013-05-27 05:32:00,81.5,77.0,29.86,East,89,3.0,10.0,85,0.00,,,0.00,weatherlink.com 1.10,2013-05-27 09:32:00,
2013-05-27 05:47:00,81.4,77.0,29.86,East,89,5.0,9.0,85,0.00,,,0.00,weatherlink.com 1.10,2013-05-27 09:47:00,
2013-05-27 06:02:00,81.0,76.0,29.86,East,100,3.0,10.0,84,0.00,,,0.00,weatherlink.com 1.10,2013-05-27 10:02:00,
2013-05-27 06:17:00,81.1,77.0,29.86,ENE,71,2.0,8.0,86,0.00,,,0.00,weatherlink.com 1.10,2013-05-27 10:17:00,
2013-05-27 06:32:00,81.1,76.0,29.87,ENE,78,5.0,10.0,83,0.00,,,0.00,weatherlink.com 1.10,2013-05-27 10:32:00,
2013-05-27 06:47:00,81.5,76.0,29.87,ESE,105,7.0,11.0,84,0.00,,,0.00,weatherlink.com 1.10,2013-05-27 10:47:00,
2013-05-27 07:02:00,81.9,77.0,29.87,ESE,105,11.0,13.0,84,0.00,,,0.00,weatherlink.com 1.10,2013-05-27 11:02:00,
2013-05-27 07:17:00,82.4,77.0,29.88,ENE,69,8.0,14.0,84,0.00,,,0.00,weatherlink.com 1.10,2013-05-27 11:17:00,
2013-05-27 07:32:00,82.7,78.0,29.88,NE,42,6.0,15.0,84,0.00,,,0.00,weatherlink.com 1.10,2013-05-27 11:32:00,
2013-05-27 07:47:00,83.0,77.0,29.89,East,100,7.0,15.0,83,0.00,,,0.00,weatherlink.com 1.10,2013-05-27 11:47:00,
2013-05-27 08:02:00,83.0,77.0,29.89,ESE,111,4.0,14.0,83,0.00,,,0.00,weatherlink.com 1.10,2013-05-27 12:02:00,
2013-05-27 08:17:00,83.6,77.0,29.89,SE,132,7.0,14.0,81,0.00,,,0.00,weatherlink.com 1.10,2013-05-27 12:17:00,
2013-05-27 08:32:00,84.4,78.0,29.90,ESE,106,3.0,16.0,80,0.00,,,0.00,weatherlink.com 1.10,2013-05-27 12:32:00,
2013-05-27 08:47:00,84.3,77.0,29.90,ESE,103,10.0,15.0,79,0.00,,,0.00,weatherlink.com 1.10,2013-05-27 12:47:00,
2013-05-27 09:02:00,84.3,78.0,29.90,ESE,107,10.0,14.0,80,0.00,,,0.00,weatherlink.com 1.10,2013-05-27 13:02:00,
2013-05-27 09:17:00,84.2,77.0,29.90,East,92,9.0,14.0,80,0.00,,,0.00,weatherlink.com 1.10,2013-05-27 13:17:00,
2013-05-27 09:32:00,85.2,78.0,29.90,ESE,105,8.0,16.0,78,0.00,,,0.00,weatherlink.com 1.10,2013-05-27 13:32:00,
2013-05-27 09:47:00,86.2,78.0,29.90,ENE,65,5.0,16.0,76,0.00,,,0.00,weatherlink.com 1.10,2013-05-27 13:47:00,
2013-05-27 10:02:00,86.4,78.0,29.90,East,84,15.0,16.0,75,0.00,,,0.00,weatherlink.com 1.10,2013-05-27 14:02:00,
2013-05-27 10:17:00,86.8,78.0,29.90,ESE,119,5.0,13.0,74,0.00,,,0.00,weatherlink.com 1.10,2013-05-27 14:17:00,
2013-05-27 10:32:00,87.2,78.0,29.91,ENE,74,9.0,18.0,74,0.00,,,0.00,weatherlink.com 1.10,2013-05-27 14:32:00,
2013-05-27 10:47:00,87.0,78.0,29.91,ESE,105,5.0,16.0,75,0.00,,,0.00,weatherlink.com 1.10,2013-05-27 14:47:00,
2013-05-27 11:02:00,87.7,79.0,29.91,SE,128,5.0,17.0,74,0.00,,,0.00,weatherlink.com 1.10,2013-05-27 15:02:00,
2013-05-27 11:17:00,87.6,78.0,29.91,ENE,78,13.0,18.0,73,0.00,,,0.00,weatherlink.com 1.10,2013-05-27 15:17:00,
2013-05-27 11:32:00,87.5,77.0,29.91,SE,130,7.0,19.0,72,0.00,,,0.00,weatherlink.com 1.10,2013-05-27 15:32:00,
2013-05-27 11:47:00,87.5,78.0,29.91,ENE,59,3.0,18.0,74,0.00,,,0.00,weatherlink.com 1.10,2013-05-27 15:47:00,
2013-05-27 12:02:00,88.4,78.0,29.91,NE,44,11.0,16.0,72,0.00,,,0.00,weatherlink.com 1.10,2013-05-27 16:02:00,
2013-05-27 12:17:00,89.0,78.0,29.90,ENE,69,2.0,13.0,71,0.00,,,0.00,weatherlink.com 1.10,2013-05-27 16:17:00,
2013-05-27 12:33:00,88.4,78.0,29.90,ESE,118,10.0,15.0,71,0.00,,,0.00,weatherlink.com 1.10,2013-05-27 16:33:00,
2013-05-27 12:48:00,88.3,78.0,29.90,East,86,8.0,16.0,71,0.00,,,0.00,weatherlink.com 1.10,2013-05-27 16:48:00,
2013-05-27 13:03:00,87.9,79.0,29.89,ENE,65,8.0,17.0,74,0.00,,,0.00,weatherlink.com 1.10,2013-05-27 17:03:00,
2013-05-27 13:18:00,88.1,78.0,29.89,NE,40,12.0,19.0,73,0.00,,,0.00,weatherlink.com 1.10,2013-05-27 17:18:00,
2013-05-27 13:33:00,88.8,78.0,29.88,ENE,74,5.0,16.0,71,0.00,,,0.00,weatherlink.com 1.10,2013-05-27 17:33:00,
2013-05-27 13:48:00,83.6,75.0,29.88,ESE,106,11.0,23.0,74,0.00,,,0.00,weatherlink.com 1.10,2013-05-27 17:48:00,
2013-05-27 14:03:00,85.1,74.0,29.87,East,90,10.0,22.0,70,0.00,,,0.00,weatherlink.com 1.10,2013-05-27 18:03:00,
2013-05-27 14:18:00,85.7,76.0,29.86,NNE,18,5.0,15.0,72,0.00,,,0.00,weatherlink.com 1.10,2013-05-27 18:18:00,
2013-05-27 14:33:00,86.6,78.0,29.86,ESE,115,3.0,18.0,75,0.00,,,0.00,weatherlink.com 1.10,2013-05-27 18:33:00,
2013-05-27 14:48:00,86.6,77.0,29.86,ESE,105,11.0,18.0,74,0.00,,,0.00,weatherlink.com 1.10,2013-05-27 18:48:00,
2013-05-27 15:03:00,86.0,78.0,29.86,ENE,70,9.0,17.0,77,0.00,,,0.00,weatherlink.com 1.10,2013-05-27 19:03:00,
2013-05-27 15:18:00,85.5,78.0,29.85,East,96,9.0,16.0,79,0.00,,,0.00,weatherlink.com 1.10,2013-05-27 19:18:00,
2013-05-27 15:33:00,85.5,78.0,29.84,NNE,28,7.0,17.0,78,0.00,,,0.00,weatherlink.com 1.10,2013-05-27 19:33:00,
2013-05-27 15:48:00,85.9,78.0,29.84,East,95,5.0,17.0,76,0.00,,,0.00,weatherlink.com 1.10,2013-05-27 19:48:00,
2013-05-27 16:03:00,85.8,78.0,29.84,NE,44,6.0,18.0,77,0.00,,,0.00,weatherlink.com 1.10,2013-05-27 20:03:00,
2013-05-27 16:18:00,85.6,77.0,29.83,ENE,76,10.0,19.0,76,0.00,,,0.00,weatherlink.com 1.10,2013-05-27 20:18:00,
2013-05-27 16:33:00,85.4,77.0,29.83,NNE,31,3.0,16.0,76,0.00,,,0.00,weatherlink.com 1.10,2013-05-27 20:33:00,
2013-05-27 16:48:00,84.9,77.0,29.83,ENE,71,13.0,14.0,78,0.00,,,0.00,weatherlink.com 1.10,2013-05-27 20:48:00,
2013-05-27 17:03:00,84.7,77.0,29.83,East,92,13.0,14.0,78,0.00,,,0.00,weatherlink.com 1.10,2013-05-27 21:03:00,
2013-05-27 17:18:00,84.7,78.0,29.82,East,87,6.0,16.0,79,0.00,,,0.00,weatherlink.com 1.10,2013-05-27 21:18:00,
2013-05-27 17:33:00,83.9,78.0,29.82,East,80,9.0,17.0,81,0.00,,,0.00,weatherlink.com 1.10,2013-05-27 21:33:00,
2013-05-27 17:48:00,84.3,78.0,29.81,NE,44,14.0,16.0,80,0.00,,,0.00,weatherlink.com 1.10,2013-05-27 21:48:00,
2013-05-27 18:03:00,84.1,77.0,29.81,ENE,69,11.0,16.0,80,0.00,,,0.00,weatherlink.com 1.10,2013-05-27 22:03:00,
2013-05-27 18:18:00,83.8,77.0,29.82,East,82,10.0,18.0,81,0.00,,,0.00,weatherlink.com 1.10,2013-05-27 22:18:00,
2013-05-27 18:33:00,83.5,78.0,29.82,NE,36,6.0,18.0,82,0.00,,,0.00,weatherlink.com 1.10,2013-05-27 22:33:00,
2013-05-27 18:48:00,83.3,77.0,29.82,ENE,64,8.0,15.0,82,0.00,,,0.00,weatherlink.com 1.10,2013-05-27 22:48:00,
2013-05-27 19:03:00,83.1,78.0,29.82,NE,45,5.0,16.0,83,0.00,,,0.00,weatherlink.com 1.10,2013-05-27 23:03:00,
2013-05-27 19:18:00,82.9,77.0,29.82,East,79,5.0,14.0,82,0.00,,,0.00,weatherlink.com 1.10,2013-05-27 23:18:00,
2013-05-27 19:33:00,82.9,77.0,29.83,ENE,57,10.0,16.0,83,0.00,,,0.00,weatherlink.com 1.10,2013-05-27 23:33:00,
2013-05-27 19:48:00,82.8,78.0,29.83,ENE,74,4.0,12.0,84,0.00,,,0.00,weatherlink.com 1.10,2013-05-27 23:48:00,
2013-05-27 20:03:00,82.7,77.0,29.84,ENE,75,7.0,11.0,83,0.00,,,0.00,weatherlink.com 1.10,2013-05-28 00:03:00,
2013-05-27 20:18:00,82.8,78.0,29.85,NE,48,6.0,12.0,84,0.00,,,0.00,weatherlink.com 1.10,2013-05-28 00:18:00,
2013-05-27 20:33:00,82.8,77.0,29.85,NE,46,5.0,16.0,83,0.00,,,0.00,weatherlink.com 1.10,2013-05-28 00:33:00,
2013-05-27 20:48:00,82.9,78.0,29.85,NE,46,8.0,14.0,84,0.00,,,0.00,weatherlink.com 1.10,2013-05-28 00:48:00,
2013-05-27 21:03:00,82.9,78.0,29.86,NE,55,4.0,15.0,84,0.00,,,0.00,weatherlink.com 1.10,2013-05-28 01:03:00,
2013-05-27 21:18:00,82.9,77.0,29.88,East,84,5.0,14.0,83,0.00,,,0.00,weatherlink.com 1.10,2013-05-28 01:18:00,
2013-05-27 21:33:00,83.0,77.0,29.88,NE,35,6.0,17.0,83,0.00,,,0.00,weatherlink.com 1.10,2013-05-28 01:33:00,
2013-05-27 21:48:00,83.1,77.0,29.88,NE,36,6.0,14.0,82,0.00,,,0.00,weatherlink.com 1.10,2013-05-28 01:48:00,
2013-05-27 22:03:00,83.1,78.0,29.89,NE,39,7.0,14.0,84,0.00,,,0.00,weatherlink.com 1.10,2013-05-28 02:03:00,
2013-05-27 22:18:00,83.0,77.0,29.89,ENE,69,7.0,15.0,83,0.00,,,0.00,weatherlink.com 1.10,2013-05-28 02:18:00,
2013-05-27 22:33:00,83.1,78.0,29.90,East,82,8.0,15.0,84,0.00,,,0.00,weatherlink.com 1.10,2013-05-28 02:33:00,
2013-05-27 22:48:00,83.0,77.0,29.90,East,99,6.0,17.0,83,0.00,,,0.00,weatherlink.com 1.10,2013-05-28 02:48:00,
2013-05-27 23:03:00,83.1,78.0,29.91,NE,45,2.0,13.0,84,0.00,,,0.00,weatherlink.com 1.10,2013-05-28 03:03:00,
2013-05-27 23:18:00,83.0,78.0,29.90,NE,52,7.0,18.0,84,0.00,,,0.00,weatherlink.com 1.10,2013-05-28 03:18:00,
2013-05-27 23:33:00,83.0,78.0,29.91,ENE,65,9.0,16.0,84,0.00,,,0.00,weatherlink.com 1.10,2013-05-28 03:33:00,
2013-05-27 23:48:00,82.9,78.0,29.91,ENE,77,7.0,18.0,84,0.00,,,0.00,weatherlink.com 1.10,2013-05-28 03:48:00,